Preview of NWS' New Version of Forecast
This preview is not operational and should not be used for support decisions.

Regional Weather Roundup (RWR)

Issued by National Weather Service (NWS)

                            
000
ASUS43 KLSX 220057
RWRMO 

WEATHER SUMMARY FOR MISSOURI
NATIONAL WEATHER SERVICE SPRINGFIELD MO
800 PM CDT SUN APR 21 2019

NOTE: "FAIR" INDICATES FEW OR NO CLOUDS BELOW 12,000 FEET WITH NO
       SIGNIFICANT WEATHER AND/OR OBSTRUCTIONS TO VISIBILITY.
       CURRENT SKY AND/OR WEATHER CONDITIONS ARE NOT AVAILABLE FOR
       CHILLICOTHE AND FARMINGTON.

MOZ001>031-035>038-043-044-053-054-220200-
...NORTHERN AND WESTERN MISSOURI...
  
CITY           SKY/WX    TMP DP  RH WIND       PRES   REMARKS
KANSAS CTY INT MOCLDY    77  46  33 S16       29.78R                  
LEE'S SUMMIT   PTCLDY    78  48  34 S15G26    29.80S                  
ST JOSEPH      CLEAR     78  47  33 S15G31    29.76R                  
CHILLICOTHE      N/A     79  46  31 S9G21     29.82R                  
     
$$
MOZ066>068-077>081-088>096-101>105-220200-
...SOUTHWEST MISSOURI...
  
CITY           SKY/WX    TMP DP  RH WIND       PRES   REMARKS
SPRINGFIELD    CLOUDY    75  47  36 S15       29.90R                  
JOPLIN         MOCLDY    76  50  40 S15G26    29.84R                  
BRANSON        MOCLDY    73  48  40 SE10G18   29.95S                  
               
$$
MOZ032>034-039>042-045>050-055>058-069>072-220200-
...CENTRAL MISSOURI...  
  
CITY           SKY/WX    TMP DP  RH WIND       PRES   REMARKS
COLUMBIA       NOT AVBL                                               
JEFFERSON CITY MOCLDY    77  44  30 SE9       29.90R                  
ROLLA          CLEAR     73  43  33 S10       29.95R                  
SEDALIA        MOCLDY    71  47  42 SE9       29.87R                  
WARRENSBURG    CLOUDY    77  45  31 SE10      29.82S                  
               
$$
MOZ051-052-059>065-220200-
...EAST CENTRAL MISSOURI...
  
CITY           SKY/WX    TMP DP  RH WIND       PRES   REMARKS
ST LOUIS INTL  PTCLDY    74  45  35 SE17      29.98R                  
                   
$$
MOZ072>076-082>087-097>100-106>115-220200-
...SOUTH CENTRAL AND SOUTHEAST MISSOURI...
  
CITY           SKY/WX    TMP DP  RH WIND       PRES   REMARKS
CAPE GIRARDEAU FAIR      67  51  56 SE8       30.04R                  
POPLAR BLUFF   FAIR      69  52  54 MISG      30.03R                  
WEST PLAINS    CLEAR     72  48  42 S13       30.01R                  
                                       
$$